Location: Czu?�w
(50.1404°N, 18.9919°E)
Time: 02:54:38
(UTC+00:00)

Meteor 2-15 - Pass Details

Date: 27 October 2020
Orbit: 935 x 956 km, 82.5° (Epoch: 24 November)

Event Time Altitude Azimuth Distance (km) Brightness Sun altitude
Rises 17:13:10 0° 180° (S) 3,622 7.5 -17.3°
Reaches altitude 10° 17:15:39 10° 178° (S) 2,679 6.8 -17.7°
Maximum altitude 17:21:45 71° 96° (E) 1,011 4.3 -18.6°
Drops below altitude 10° 17:27:52 10° 14° (NNE) 2,688 6.7 -19.6°
Sets 17:30:22 0° 12° (NNE) 3,634 7.4 -20.0°
